Temp_Advection
nan nan nan nan nan nan nan nan nan nan nan nan nan nan nan nan nan nan nan nan nan nan nan nan nan nan nan nan nan nan nan nan nan nan nan nan nan nan nan nan nan nan nan nan nan nan nan nan nan nan nan nan nan nan nan nan nan nan nan nan nan nan nan nan nan nan nan nan nan
nan 0 0 0 0 0 0 0 0 1 1 1 1 0 0 0 0 0 0 0 0 0 0 0 0 0 0 0 0 0 0 0 0 0 0 0 0 0 0 0 0 0 -0 -0 -0 -0 -0 -0 -0 -0 -0 -0 -0 -0 -0 -0 -0 -0 -0 -0 -0 -0 -0 -0 -0 -0 -0 -0 nan
nan 0 0 0 0 -0 -0 0 0 1 1 1 1 0 0 0 0 0 0 1 1 1 0 0 0 0 0 0 0 0 0 0 0 0 0 0 0 0 0 0 0 0 0 -0 -0 -0 -0 0 -0 -0 -0 -0 -0 -0 -0 -0 -0 -0 -0 -0 -0 -0 -0 -0 -0 -0 -0 -0 nan
nan 0 0 -0 -0 -0 0 1 0 0 0 0 0 0 0 0 0 0 1 1 1 1 0 0 0 0 0 0 0 0 0 0 0 0 0 0 0 0 0 0 0 0 0 0 -0 -0 -0 -0 -0 -0 -0 -0 -0 -0 -0 -0 -0 -0 -0 -0 -0 -0 -0 -0 -0 -0 -0 -0 nan
nan -0 -0 -0 0 0 1 1 0 0 0 -0 -0 -0 0 0 0 0 1 1 1 0 0 0 0 0 0 0 0 0 0 0 0 0 0 0 0 0 0 0 0 0 0 0 -0 -0 -0 -0 -0 -0 -0 -0 -0 -0 -0 -0 -0 -0 -0 -0 -0 -0 -0 -0 -0 -0 -0 -0 nan
nan -0 -0 0 0 1 1 1 0 0 -0 -0 -0 -0 0 0 0 1 1 1 0 0 0 0 0 0 0 0 0 0 0 0 0 0 0 0 0 0 0 0 0 0 0 0 -0 -0 -0 -0 -0 -0 -0 -0 -0 -0 -0 -0 -0 -0 -0 -0 -0 -0 -0 -0 -0 -0 -0 -0 nan
nan -0 0 0 1 1 1 0 0 0 -0 -0 0 0 0 0 1 1 1 1 1 0 0 0 0 0 0 0 0 0 0 0 0 0 0 0 0 0 0 0 0 0 0 -0 -0 -0 -0 -0 -0 -0 -0 -0 -0 -0 -0 -0 -0 -0 -0 0 -0 -0 -0 -0 -0 -0 -0 -0 nan
nan 0 0 0 1 1 0 0 0 0 0 0 0 0 1 1 1 1 1 1 1 0 0 0 0 0 0 0 0 0 0 0 0 0 0 0 0 0 0 0 0 0 -0 -0 -0 -0 -0 -0 -0 -0 -0 -0 -0 -0 -0 -0 -0 -0 -0 0 0 0 -0 -0 -0 -0 -0 -0 nan
nan 0 0 0 0 0 0 0 0 0 0 0 1 1 1 1 1 1 1 1 1 0 0 0 0 0 0 0 0 0 0 0 0 0 0 0 0 0 0 -0 -0 -0 -0 -0 -0 -0 -0 -0 -0 -0 -0 -0 -0 -0 -0 -0 -0 -0 -0 -0 0 0 0 -0 -0 -0 -0 -0 nan
nan -0 0 0 0 0 0 0 0 0 1 1 1 1 1 1 1 1 1 1 0 0 0 0 0 0 0 0 0 0 0 0 0 0 0 0 0 0 -0 -0 -0 -0 -0 -0 -0 -0 -0 -0 -0 -0 -0 -0 -0 -0 -0 -0 -0 -0 -0 -0 -0 0 0 0 0 0 0 -0 nan
nan -0 -0 0 0 0 0 0 0 1 1 1 1 1 1 1 1 0 0 0 0 1 1 0 0 0 0 0 0 0 0 0 0 0 0 0 0 0 -0 -0 -0 -0 -0 -0 -0 -0 -0 -0 -0 -0 -0 -0 -0 -0 -0 -0 -0 -0 -0 -0 -0 -0 0 0 0 0 0 0 nan
nan -0 0 0 0 0 0 0 0 0 0 1 1 1 1 1 0 0 0 1 1 1 1 1 0 0 0 0 0 0 0 0 0 0 0 0 0 0 -0 -0 -0 -0 -0 -0 -0 -0 -0 -0 -0 -0 -0 -0 -0 -0 -0 -0 -0 -0 -0 -0 -0 -0 0 0 0 0 0 0 nan
nan 0 0 0 0 0 0 0 0 0 0 0 0 0 1 0 0 1 1 1 1 1 1 1 0 0 0 0 0 0 0 0 0 0 0 0 -0 -0 -0 -0 -0 -0 -0 -0 -0 -0 -0 -0 -0 -0 -0 -0 -0 -0 -0 -0 -0 -0 -0 -0 -0 -0 -0 -0 0 0 0 0 nan
nan 0 0 0 0 -0 -0 0 0 0 0 0 0 0 1 0 1 1 1 1 1 1 1 0 0 0 0 0 0 0 0 0 0 0 0 0 -0 -0 -0 -0 -0 -0 -0 -0 -0 -0 -0 -0 -0 -0 -0 -0 -0 -0 -0 -0 -0 -0 -0 -0 -0 -0 -0 -0 -0 -0 -0 -0 nan
nan 0 0 0 -0 -0 -0 0 0 0 0 1 1 1 1 1 1 1 1 1 1 1 0 0 0 0 0 0 0 0 0 0 0 0 0 0 -0 -0 -0 -0 -0 -0 -0 -0 -0 -0 -0 -0 -0 -0 -0 -0 -0 -0 -0 -0 -0 -0 -0 -0 -0 -0 -0 -0 -0 -0 -0 -0 nan
nan 0 0 0 0 0 0 0 1 1 1 1 1 1 1 1 1 1 1 1 1 1 0 0 0 0 0 0 0 0 0 0 0 0 0 -0 -0 -0 -0 -0 -0 -0 -0 -0 -0 -0 -0 -0 -0 -0 -0 -0 -0 -0 -0 -0 -0 -0 -0 -0 -0 -0 -0 -0 -0 -0 -0 -0 nan
nan 0 0 0 0 0 1 1 1 1 1 1 1 1 1 1 1 1 1 1 1 0 0 0 0 0 0 0 0 0 0 0 0 0 0 -0 -0 -0 -0 -0 -0 -0 0 0 -0 -0 -0 -0 -0 -0 -0 -0 -0 -0 -0 -0 -0 -0 -0 -0 -0 -0 -0 -0 -0 -0 -0 -0 nan
nan 0 0 0 1 1 1 1 1 1 1 1 1 1 1 1 1 1 1 1 0 0 0 0 0 0 0 0 0 0 0 0 0 0 0 -0 -0 -0 -0 -0 -0 -0 -0 -0 -0 -0 -0 -0 -0 -0 -0 -0 -0 -0 -0 -0 -0 -0 -0 -0 -0 -0 -0 -0 -0 0 0 0 nan
nan 0 0 1 1 1 1 1 1 1 1 1 1 1 1 1 1 1 1 0 0 0 0 0 0 0 0 0 0 0 0 0 0 0 -0 -0 -0 -0 -0 -0 -0 -0 -0 -0 -0 -0 -0 -0 -0 -0 -0 -0 -0 -0 -0 -0 -0 -0 -0 -0 -0 -0 -0 -0 0 0 0 0 nan
nan 0 1 1 1 1 1 1 1 1 1 1 1 1 1 1 1 1 0 0 0 0 0 0 0 0 0 0 0 0 0 0 -0 -0 -0 -0 -0 -0 -0 -0 -0 -0 -0 -0 -0 -0 -0 -0 -0 -0 -0 -0 -0 -0 -0 -0 -0 -0 -0 -0 -0 -0 -0 -0 0 0 0 0 nan
nan 1 1 1 1 1 1 1 1 1 1 1 1 1 1 1 0 1 0 0 0 0 0 0 0 0 0 0 0 0 0 0 -0 -0 -0 -0 -0 -0 -0 -0 -0 -0 -0 -0 -0 -0 -0 -0 -0 -0 -0 -0 -0 -0 -0 -0 -0 -0 -0 -0 -0 -0 -0 -0 -0 0 0 0 nan
nan 1 1 1 1 1 1 1 1 1 1 1 1 0 0 0 1 1 0 0 1 1 0 0 0 0 0 0 0 0 0 0 -0 -0 -0 -0 -0 -0 -0 -0 -0 -0 -0 -0 -0 -0 -0 -0 -0 -0 -0 -0 -0 -0 -1 -1 -1 -1 -1 -0 -0 -0 -0 -0 -0 0 0 0 nan
nan 1 1 1 1 1 1 1 1 1 1 1 0 0 0 1 1 1 1 1 1 0 0 0 0 0 0 0 0 0 0 0 0 -0 -0 -0 -0 -0 -0 -0 -0 -0 -0 -0 -0 -0 -0 -0 -0 -0 -0 -0 -0 -0 -1 -1 -1 -1 -1 -1 -1 -0 -0 -0 -0 0 0 0 nan
nan 1 1 1 0 0 1 1 1 1 1 0 0 1 1 1 1 1 1 1 1 0 0 0 0 0 0 0 0 -0 -0 -0 -0 -0 -0 -0 -0 -0 -0 -0 -0 -0 -0 -0 -0 -0 -0 -0 -0 -0 -0 -1 -1 -1 -1 -1 -1 -1 -1 -1 -1 -1 -0 -0 -0 -0 0 0 nan
nan 1 0 0 0 1 1 1 1 1 1 1 1 1 1 1 1 1 1 1 0 0 0 0 0 0 0 0 0 -0 -0 -0 -0 -0 -0 -0 -0 -0 -0 -0 -0 -0 -0 -0 -0 -0 -0 0 -0 -0 -0 -1 -1 -1 -1 -1 -1 -1 -1 -1 -1 -1 -1 -1 -1 -0 -0 0 nan
nan 1 1 1 1 1 1 1 1 1 1 1 1 1 1 1 1 1 0 0 0 0 0 0 0 0 0 0 0 0 -0 -0 -0 -0 -0 -0 -0 -0 -0 -0 -0 -0 -0 -0 -0 -0 0 0 0 0 0 -0 -0 -0 -0 -0 -0 -0 -0 -0 -0 -1 -1 -1 -1 -1 -0 -0 nan
nan 1 1 1 1 1 1 1 1 1 1 1 1 1 1 1 1 0 0 0 0 0 0 0 0 0 -0 -0 -0 -0 -0 -0 -0 -0 -0 -0 -0 -0 -0 -0 -0 -0 -0 -0 -0 -0 0 0 0 0 0 0 -0 -0 -0 -0 -0 -0 -0 0 0 0 -0 -1 -1 -1 -1 -0 nan
nan 1 1 1 1 1 1 1 1 1 1 1 1 1 1 1 0 0 0 0 0 0 0 0 0 -0 -0 -0 -0 -0 -0 -0 -0 -0 -0 -0 -0 -0 -0 -0 -0 -0 -0 -0 -0 -0 -0 0 0 0 1 0 0 -0 -0 -0 -0 0 0 0 0 0 0 -0 -1 -1 -1 -0 nan
nan 1 1 1 1 1 1 1 1 1 1 1 1 1 1 0 0 0 0 0 0 0 0 0 0 -0 -0 -0 -0 -0 -0 0 -0 -0 -0 -0 -0 -0 -0 -0 -0 -0 -0 -0 -0 -0 -0 -0 0 0 0 1 0 -0 -0 -0 -0 0 0 0 1 1 0 0 -0 -0 -0 -0 nan
nan 1 1 1 1 1 1 1 1 1 1 1 1 0 0 0 0 0 0 0 0 0 0 -0 -0 -0 -0 -0 -0 -0 0 0 -0 -0 -0 -0 -0 -0 -0 -0 -0 -0 -0 -0 -0 -0 -0 -0 0 0 0 0 0 0 -0 -0 0 0 0 0 1 0 0 -0 -0 -0 -0 -0 nan
nan 1 1 1 1 1 1 1 1 1 1 1 0 0 0 0 0 0 0 0 0 0 -0 -0 -0 -0 -0 -0 -0 -0 -0 -0 -0 -0 -0 -0 -0 -0 -0 -0 -0 -0 -0 -0 -0 -0 -0 -0 0 0 0 0 0 0 -0 -0 0 0 0 0 1 0 0 -0 -0 -0 -0 -0 nan
nan 1 1 1 1 1 1 1 1 1 0 0 0 0 0 0 0 0 0 0 0 -0 -0 -0 -0 -0 0 0 -0 0 -0 -0 -0 -0 -0 -0 -0 -0 -0 -0 -0 -0 -0 -0 -0 -0 -0 -0 -0 0 0 0 0 0 0 0 0 0 0 0 0 0 0 -0 -0 -0 -0 -0 nan
nan 1 1 1 1 1 1 1 1 0 0 0 0 0 0 0 0 0 0 0 -0 -0 -0 -0 -0 -0 0 0 0 -0 -0 -0 -0 -0 -0 -0 -0 -0 -0 -0 -0 -0 -0 -0 -0 -0 -0 -0 0 0 0 0 0 0 0 0 0 0 0 0 0 -0 0 -0 -0 -0 -0 -0 nan
nan 1 1 1 1 1 1 0 0 0 0 0 0 0 0 0 0 0 0 -0 -0 -0 -0 -0 0 0 0 0 -0 -0 -0 -0 -0 -0 -0 -0 -0 -0 -0 -0 -0 -0 -0 -0 -0 -0 -0 0 0 0 0 0 0 0 0 0 0 0 0 0 0 -0 -0 -0 -0 -0 -0 -0 nan
nan 1 1 1 1 1 0 0 0 0 0 0 0 0 0 0 0 0 -0 -0 -0 -0 -0 0 0 0 0 -0 -0 -0 -0 -0 -0 -0 -0 -0 -0 -0 -0 -0 -0 -0 -0 -0 -0 -0 -0 0 0 0 0 -0 -0 -0 -0 0 0 0 0 -0 -0 -0 -0 -0 -0 -0 -0 -0 nan
nan 1 1 1 0 0 0 0 0 0 0 0 0 0 0 -0 -0 -0 -0 -0 -0 0 0 0 0 -0 -0 -0 -0 -0 -0 -0 -0 -0 -0 -0 -0 -0 -0 -0 -0 -0 -0 -0 -0 -0 -0 0 0 0 0 -0 -0 -0 -0 -0 -0 -0 -0 -1 -1 -1 -1 -0 -0 -0 -0 -0 nan
nan 1 1 0 0 0 0 0 0 0 0 0 0 0 0 -0 -0 -0 -0 -0 -0 0 0 0 -0 -0 -0 -0 -0 -0 -0 -0 -0 -0 -0 -0 -0 -0 -0 -0 -0 -0 -0 -0 -0 -0 -0 0 0 0 0 -0 -0 -0 -0 -0 -0 -0 -1 -1 -1 -1 -1 -1 -0 -0 -0 -0 nan
nan 0 0 0 0 0 0 0 0 0 0 0 0 -0 -0 -0 -0 -0 -0 0 0 0 0 0 -0 -0 -0 -0 -0 -0 -0 -0 -0 -0 -0 -0 -1 -1 -1 -0 -0 -0 -0 -0 -0 -0 -0 0 0 0 0 0 -0 -0 -0 -0 -0 -0 -1 -1 -1 -1 -1 -0 -0 -0 -0 -0 nan
nan 0 0 0 0 0 0 0 0 0 0 0 -0 -0 -0 -0 -0 0 0 0 0 0 -0 -0 -0 -0 -0 -0 -0 -0 -0 -0 -0 -0 -0 -0 -0 -1 -1 -1 -0 -0 -0 -0 -0 -0 -0 0 0 0 0 0 -0 -0 -0 -0 0 -0 -0 -1 -1 -0 -0 -0 -0 -0 -0 -0 nan
nan 0 0 0 0 0 0 0 0 0 0 -0 0 -0 -0 -0 0 0 0 0 -0 -0 -0 -0 -0 -0 -0 -0 -0 -0 -0 -0 -0 -0 -0 -0 -0 -1 -1 -1 -1 -0 -0 -0 -0 -0 -0 -0 0 0 0 0 0 -0 -0 0 0 0 -0 -0 -0 -0 -0 -0 -0 -0 0 -0 nan
nan nan nan nan nan nan nan nan nan nan nan nan nan nan nan nan nan nan nan nan nan nan nan nan nan nan nan nan nan nan nan nan nan nan nan nan nan nan nan nan nan nan nan nan nan nan nan nan nan nan nan nan nan nan nan nan nan nan nan nan nan nan nan nan nan nan nan nan nan
Wind_Speed
16 17 18 18 19 19 20 20 21 22 23 25 26 27 27 26 24 23 21 20 18 17 15 14 13 11 10 10 9 9 10 10 10 11 12 13 14 15 16 17 17 18 18 18 19 19 19 20 20 21 21 21 21 21 21 20 20 20 20 20 20 20 20 21 21 22 23 24 25
17 18 19 19 19 19 20 21 22 23 24 25 26 26 26 25 24 23 21 19 18 16 15 14 12 11 10 10 10 9 10 10 11 11 13 14 15 16 16 17 18 18 18 18 19 19 20 20 21 21 21 21 21 21 20 20 20 20 19 20 20 20 21 21 22 23 24 24 25
19 19 20 19 19 20 21 22 23 25 26 26 26 26 26 25 23 22 20 19 17 16 15 13 12 11 10 10 10 10 10 10 11 12 13 14 15 16 17 17 18 18 18 18 19 19 20 21 21 21 21 21 21 20 20 20 19 19 19 20 20 21 21 22 23 24 24 25 26
20 20 20 19 19 20 21 22 24 26 27 27 27 26 25 24 22 21 19 18 17 16 14 13 12 11 10 10 10 10 10 11 12 13 14 15 16 16 17 17 18 18 18 19 19 20 20 21 21 21 21 21 20 20 19 19 19 19 19 20 20 21 22 23 24 24 25 26 27
20 20 19 19 18 19 20 22 25 27 27 27 27 26 25 23 21 20 19 18 17 15 14 13 12 11 11 10 10 10 11 11 12 13 14 15 16 17 17 18 18 18 18 19 19 20 21 21 21 21 21 20 20 19 19 19 19 19 20 20 21 22 23 23 24 25 26 27 27
20 20 19 18 18 20 22 24 26 27 28 27 27 25 24 22 21 20 19 18 16 15 14 13 12 11 11 11 11 11 11 12 13 14 15 16 17 17 18 18 18 18 19 19 20 20 21 21 21 21 20 20 19 19 19 18 19 19 20 21 22 23 24 24 25 26 27 27 28
20 19 19 19 19 21 24 26 27 27 27 27 26 24 22 21 20 19 18 17 16 15 14 13 12 11 11 11 11 11 12 13 14 15 15 16 17 17 18 18 19 19 19 20 20 21 21 21 21 20 20 19 19 19 19 18 19 19 20 21 22 23 24 25 26 27 27 28 29
20 19 19 19 21 23 26 27 28 28 27 26 24 23 21 20 19 18 18 17 15 14 13 13 12 11 11 11 11 12 12 13 14 15 16 16 17 18 18 19 19 19 20 20 20 21 21 21 20 20 19 19 19 19 19 19 19 20 21 22 23 24 25 26 27 28 28 29 29
20 20 20 21 22 25 27 27 27 27 26 24 23 21 20 19 18 18 17 16 15 14 13 12 12 12 11 11 12 12 13 13 14 15 16 17 17 18 19 19 19 20 20 20 20 21 20 20 20 19 19 18 18 18 19 19 20 21 22 22 23 24 25 26 27 28 29 30 30
21 21 22 23 25 27 28 27 27 25 24 23 21 20 19 18 18 17 16 15 15 14 13 13 12 12 12 12 12 12 13 14 15 15 16 17 17 18 19 19 20 20 20 21 20 20 20 20 19 19 18 18 18 19 19 20 21 22 22 23 24 25 26 27 28 29 30 30 31
22 22 23 25 27 28 28 27 26 24 23 21 20 19 18 18 17 17 16 15 14 14 13 13 12 12 12 12 12 12 13 14 15 15 16 17 18 18 19 19 20 20 20 21 20 20 20 19 18 18 18 18 19 19 20 21 21 22 23 24 25 26 27 28 28 29 30 31 31
22 23 25 26 28 28 28 27 25 23 22 20 19 19 18 18 17 17 16 15 14 13 13 13 12 12 12 12 12 13 13 14 15 15 16 17 18 18 19 20 20 20 20 20 20 20 19 18 18 18 18 19 19 20 21 22 22 23 24 25 26 27 27 28 29 30 31 31 32
23 24 26 28 28 28 27 26 24 23 21 20 19 19 18 18 17 16 15 14 14 13 13 12 12 12 12 12 13 13 13 14 15 15 16 17 18 18 19 19 20 20 20 20 20 19 19 18 18 18 18 19 20 21 22 23 23 24 25 26 27 28 28 29 30 31 31 32 32
24 25 27 28 28 28 26 25 24 22 21 20 19 19 18 17 16 15 14 14 13 13 13 12 12 12 12 12 13 13 14 14 15 16 17 17 18 18 19 19 20 20 20 20 19 19 18 18 18 18 19 20 21 22 23 23 24 25 26 27 28 28 29 30 31 31 32 32 33
24 26 27 28 28 27 26 24 23 22 21 20 19 18 18 17 16 15 14 13 13 13 13 12 12 12 12 13 13 13 14 14 15 16 17 17 18 18 18 19 19 20 20 19 19 19 18 18 19 19 20 21 22 22 23 24 25 26 27 27 28 29 30 31 31 32 32 33 33
25 26 27 27 27 26 25 24 23 22 21 20 19 18 17 16 15 14 14 13 13 13 13 12 12 12 13 13 13 13 14 15 16 16 17 17 17 18 18 19 19 19 19 19 19 19 19 19 20 20 21 22 23 23 24 25 26 26 27 28 29 30 31 31 32 33 33 33 34
25 26 27 27 26 25 25 24 23 22 21 19 18 17 16 15 14 14 13 13 13 13 13 12 12 12 13 13 13 13 14 15 16 16 16 17 17 18 18 18 19 19 19 18 19 19 19 20 21 22 22 23 24 24 25 26 26 27 28 29 29 30 31 32 33 33 34 34 34
26 26 26 26 25 24 24 23 22 21 20 18 17 16 15 15 14 14 13 13 13 13 12 12 12 12 12 12 13 14 14 15 16 16 16 17 17 17 18 18 19 19 19 18 19 19 20 21 22 23 23 24 25 25 26 26 27 28 28 29 30 31 31 32 33 34 34 34 34
25 25 25 25 24 23 22 21 21 20 19 18 17 16 15 14 14 14 14 13 13 13 12 12 12 12 12 12 13 14 15 15 16 16 16 17 17 17 18 18 19 19 19 19 19 20 21 21 22 23 24 25 25 26 27 27 28 28 29 30 30 31 32 33 33 34 34 34 34
25 24 24 24 23 22 21 20 20 19 18 17 16 15 15 14 14 14 14 14 13 13 12 12 12 12 12 12 13 14 15 15 16 16 16 17 17 18 18 18 19 19 19 19 20 20 21 22 23 24 25 25 26 27 27 28 29 29 30 30 31 32 32 33 33 34 34 34 34
24 24 23 23 22 21 21 20 19 18 17 16 16 15 14 14 14 14 14 13 13 12 12 12 11 12 12 13 13 14 15 15 16 16 16 17 17 18 18 18 19 19 19 20 20 21 22 23 24 25 25 26 27 27 28 29 29 30 30 31 31 32 33 33 34 34 34 33 33
23 23 22 22 21 21 20 19 18 17 16 16 15 15 14 14 14 14 13 13 12 12 11 11 11 11 12 12 13 14 15 15 16 16 17 17 18 18 18 18 19 19 20 20 21 22 23 24 25 25 26 27 28 28 29 29 30 30 31 32 32 33 33 33 34 34 33 33 32
23 22 22 21 21 20 19 18 17 17 16 16 15 15 15 14 14 13 13 12 11 11 11 11 11 11 12 13 14 14 15 15 16 17 17 17 18 18 18 19 19 19 20 21 22 22 23 24 25 26 27 27 28 29 29 30 30 31 31 32 33 33 33 34 34 34 33 32 31
22 22 22 21 20 19 19 18 17 17 16 16 15 15 14 14 13 12 12 11 10 10 10 10 10 11 12 13 14 14 15 15 16 17 17 18 18 18 19 19 19 20 21 21 22 23 24 25 26 27 27 28 28 29 30 30 31 31 32 32 33 33 34 34 33 33 32 32 31
22 21 21 20 20 19 18 18 17 16 16 15 15 15 14 13 12 11 10 10 9 9 9 10 11 11 12 13 13 14 15 15 16 17 17 18 18 19 19 19 20 20 21 22 23 24 24 25 26 27 28 28 29 29 30 30 31 32 32 32 33 33 33 33 33 32 32 31 30
21 21 20 20 19 19 18 17 17 16 16 15 15 14 13 12 11 10 9 8 8 9 9 10 11 12 12 13 13 14 15 15 16 16 17 18 18 19 19 20 20 21 22 23 23 24 25 25 26 26 27 28 29 30 30 31 31 32 32 32 32 32 32 32 32 32 31 30 28
21 21 20 20 19 18 18 17 16 16 15 15 14 13 12 10 9 8 7 7 8 8 9 10 11 12 12 13 14 14 15 16 16 16 17 17 18 19 20 20 21 22 23 23 24 24 25 25 26 26 27 28 29 30 30 31 31 32 32 32 32 31 31 31 31 31 30 29 27
21 21 20 19 19 18 17 17 16 15 15 14 13 11 10 8 7 6 6 7 8 9 9 10 11 11 12 13 14 15 15 16 16 17 17 18 18 19 20 21 22 23 23 24 24 25 25 26 26 27 27 28 29 30 30 31 31 31 31 31 30 30 30 30 30 30 29 28 26
21 20 19 19 18 18 17 16 16 15 14 12 11 9 8 6 6 6 6 7 8 9 9 10 11 11 12 13 14 15 16 16 16 17 17 18 19 20 21 22 22 23 24 24 25 25 26 26 27 27 28 28 29 30 30 31 31 31 30 30 29 29 29 29 29 28 27 26 24
20 19 19 18 18 17 16 15 14 13 12 10 9 7 6 5 5 5 6 7 8 8 9 10 10 11 12 13 15 15 16 16 17 17 18 19 19 21 22 22 23 23 24 24 25 25 26 26 27 28 28 28 29 29 30 30 30 30 29 29 28 28 27 27 27 27 26 24 22
19 18 18 17 17 16 15 14 13 12 10 8 7 6 5 4 5 5 6 7 8 8 9 10 10 11 13 14 15 15 16 16 17 18 18 19 20 21 22 23 23 24 24 25 25 26 26 27 27 28 28 29 29 29 29 29 29 28 28 27 27 26 26 26 26 25 23 22 20
18 18 17 17 16 15 14 13 11 10 8 7 5 5 4 4 5 5 6 7 7 8 9 9 11 12 13 14 15 15 16 17 17 18 19 20 21 22 23 23 24 24 25 25 25 26 27 27 28 28 29 29 29 29 29 29 28 27 27 26 25 25 25 25 24 23 21 20 19
18 17 17 16 15 14 12 11 10 8 7 6 5 4 4 4 5 5 5 6 7 8 9 10 11 13 13 14 15 16 16 17 18 19 20 21 21 22 23 23 24 25 25 26 26 26 27 28 28 29 29 29 28 28 28 28 27 26 25 25 25 25 24 23 22 20 19 18 18
17 17 16 15 13 12 11 10 8 7 6 5 4 4 4 4 5 5 5 6 7 8 9 11 12 13 14 14 15 16 17 18 19 20 21 21 22 22 23 24 24 25 25 26 26 27 27 28 28 29 29 28 28 28 28 27 26 25 25 24 25 24 23 21 20 18 18 18 18
16 16 15 13 12 11 10 8 7 6 5 5 4 4 4 4 4 5 5 6 7 9 11 12 12 13 14 14 15 16 17 18 19 20 21 22 22 23 23 24 25 25 26 26 27 27 28 28 29 29 28 28 28 27 27 26 25 24 24 24 24 24 22 20 18 18 18 18 19
15 14 13 12 11 10 8 7 7 6 5 4 4 3 3 3 4 5 6 7 9 10 11 12 12 13 14 14 16 17 18 19 20 21 21 22 23 23 23 24 25 25 26 26 27 28 28 28 29 28 28 28 27 27 25 24 24 24 24 24 24 23 21 19 18 18 18 19 19
14 13 12 11 9 8 7 7 6 5 4 3 2 2 3 4 4 5 7 8 9 10 11 11 12 13 14 15 16 18 19 19 20 21 22 23 23 24 24 24 25 25 26 27 27 28 28 29 28 28 27 27 26 25 24 23 23 24 24 24 23 22 20 20 20 19 19 19 20
13 12 10 9 8 7 7 6 5 4 3 2 1 2 3 4 5 6 7 8 9 10 11 11 12 13 14 16 17 18 19 20 21 21 22 23 24 24 25 25 25 26 27 27 28 28 29 29 28 27 26 25 25 24 23 23 23 23 23 23 22 22 21 20 20 20 20 20 22
12 11 9 8 7 6 6 5 4 3 2 1 2 3 3 4 6 7 8 8 9 10 11 12 13 14 15 16 17 18 20 21 21 22 22 23 24 24 25 25 26 27 27 28 28 29 29 28 28 27 25 24 23 22 22 22 21 21 21 21 22 22 21 21 21 21 22 23 26
11 10 8 7 6 6 5 4 3 1 0 1 2 3 4 5 6 7 8 8 9 10 11 12 14 15 16 17 18 19 20 21 21 22 23 23 24 25 25 26 27 27 28 28 29 29 28 28 27 26 24 22 21 20 20 20 20 20 20 21 21 22 22 21 21 22 24 28 29
9 8 7 7 6 5 4 2 1 1 1 2 3 4 5 5 6 7 8 9 10 11 12 13 14 16 17 17 18 19 20 20 21 22 23 23 24 25 26 27 27 28 28 28 29 28 28 27 26 25 23 21 19 19 19 19 19 19 20 20 21 21 22 22 24 26 28 30 30
Wind_Direction
194 191 189 192 194 195 195 195 196 197 197 196 194 192 193 195 198 202 206 209 211 213 217 220 225 231 238 246 255 266 276 287 297 305 311 315 318 320 322 323 325 326 329 331 333 335 336 336 336 335 335 334 334 334 333 333 334 333 333 333 333 333 333 333 332 332 331 330 329
192 189 188 189 190 190 191 192 193 194 194 194 192 192 194 197 201 205 209 211 213 215 218 222 227 233 240 249 259 269 280 289 298 305 310 313 316 318 320 321 323 325 327 330 333 334 335 336 335 335 334 333 333 333 332 332 333 333 332 332 332 332 332 331 331 330 330 329 327
190 188 186 185 185 186 188 189 190 191 191 190 190 192 195 199 204 208 211 212 214 217 220 224 230 235 243 252 262 273 283 292 300 305 309 312 314 316 318 320 322 324 326 329 332 333 334 334 334 333 332 331 331 331 331 331 331 332 331 331 331 331 331 330 329 329 328 327 326
188 185 182 182 182 184 186 187 188 188 189 188 190 193 197 201 206 209 212 214 216 218 222 226 232 239 246 256 266 276 286 294 300 305 308 311 313 315 317 318 321 323 326 328 331 332 333 333 332 331 330 330 330 330 330 330 331 331 330 330 330 330 329 329 328 328 327 326 326
184 181 178 178 179 181 184 186 187 188 188 189 191 195 199 203 207 210 213 215 217 220 224 229 235 242 250 259 269 278 287 295 301 305 308 310 312 314 316 318 320 323 325 327 329 330 331 331 330 329 329 328 328 329 329 329 330 330 329 329 329 329 328 328 327 327 326 326 325
180 176 174 175 177 180 183 186 187 188 189 191 194 198 202 206 209 212 214 216 219 223 228 233 239 246 254 263 272 280 288 295 300 304 307 310 312 314 316 318 320 322 325 326 328 329 329 329 328 328 327 327 327 327 328 329 329 329 329 329 328 328 327 327 326 326 325 325 325
175 173 171 172 175 179 182 184 187 188 191 194 198 202 206 210 212 214 216 218 222 226 230 236 242 249 257 265 273 281 289 295 300 304 307 310 312 315 317 319 320 322 324 326 327 327 327 327 326 326 325 326 326 326 327 328 328 328 328 328 327 327 327 326 325 325 325 324 324
172 170 169 170 174 178 182 184 187 190 193 196 200 205 209 213 215 216 218 221 224 228 233 239 246 252 260 267 275 283 290 296 301 304 307 310 313 315 317 319 321 322 324 325 326 326 326 325 325 324 324 324 325 326 326 327 328 328 328 328 327 326 326 325 325 324 324 323 323
170 167 167 169 173 178 181 185 188 191 194 198 202 206 210 213 216 218 220 222 226 231 237 242 249 256 263 270 277 284 291 296 301 305 308 311 314 316 318 320 321 322 323 324 324 324 324 323 323 323 323 324 325 325 326 326 327 327 327 327 327 326 325 324 324 323 322 322 321
169 167 167 170 174 178 182 185 189 193 196 200 204 207 210 213 216 219 221 225 230 235 240 245 252 258 265 272 279 286 292 297 302 306 309 313 315 317 319 320 321 322 322 323 323 323 322 321 321 322 322 323 324 325 325 326 326 327 326 326 326 325 325 323 322 322 321 320 320
169 167 168 171 174 178 182 186 189 193 198 202 206 209 212 214 217 220 224 228 232 237 242 248 254 260 267 275 282 288 293 298 303 307 310 313 315 317 319 320 321 322 322 322 322 321 321 320 320 321 322 323 324 325 325 326 326 326 326 325 325 325 324 323 321 320 320 319 319
170 169 170 173 176 180 184 188 192 196 200 205 209 212 214 216 218 222 226 230 234 239 244 250 255 262 270 277 283 289 294 299 304 308 311 313 316 318 319 320 321 321 321 321 320 320 319 319 320 321 322 323 324 325 325 325 325 325 325 324 324 323 322 321 320 320 319 319 319
171 170 172 175 179 183 187 191 195 199 203 207 211 214 215 217 220 223 227 231 236 241 246 252 257 264 271 279 285 290 296 301 305 308 311 314 316 318 320 321 321 321 321 320 319 318 318 318 319 321 323 323 324 324 325 325 325 324 324 323 323 322 321 320 320 319 319 318 319
173 173 174 178 182 186 191 195 199 203 207 210 213 215 217 218 221 224 228 232 237 243 248 253 260 266 273 280 286 292 297 302 306 309 311 314 317 319 321 321 321 321 320 319 318 318 318 319 320 321 323 323 324 324 324 324 324 324 323 323 322 321 320 320 319 319 319 319 319
174 175 178 181 186 190 194 199 203 206 209 211 214 215 217 219 222 225 229 233 238 244 250 256 262 269 276 282 288 294 299 303 306 309 311 315 317 320 321 321 321 320 319 318 317 317 318 319 321 322 323 323 323 323 324 324 323 323 322 322 321 320 320 319 319 319 319 319 319
176 178 181 185 190 194 198 202 205 208 211 212 214 215 217 219 223 226 230 234 240 246 252 258 265 272 279 285 291 296 300 304 306 309 312 316 319 321 321 321 320 319 318 317 317 317 319 320 321 322 323 323 323 323 323 323 322 322 321 321 320 320 320 319 319 319 320 319 319
179 182 185 189 194 197 201 204 207 209 211 212 214 215 217 220 224 227 232 236 242 248 254 261 268 275 282 288 294 298 301 304 307 310 314 317 320 321 321 320 319 318 317 316 317 318 320 321 322 322 322 323 323 322 322 322 322 321 321 320 320 320 320 320 320 320 320 319 319
182 185 189 193 196 199 202 205 207 209 210 212 213 215 217 221 224 229 233 239 244 250 257 265 272 278 284 290 295 299 302 305 308 311 315 319 320 321 320 319 318 317 316 316 317 319 320 321 322 322 322 322 322 321 321 321 321 321 320 320 320 320 320 319 319 319 319 319 319
186 189 192 195 197 200 202 204 206 208 210 211 213 215 218 222 226 231 236 241 246 253 260 268 275 282 287 292 296 300 303 306 310 314 317 319 320 320 319 318 317 316 316 317 318 319 320 321 321 321 321 321 320 320 320 320 320 321 321 320 320 320 320 319 319 319 319 318 318
189 192 194 196 198 200 201 203 205 207 209 210 212 215 219 223 228 233 238 244 249 256 264 271 278 284 289 294 298 301 304 308 312 316 318 319 320 319 318 317 317 316 317 318 319 320 321 321 321 320 320 319 319 319 320 320 321 321 321 320 320 320 319 319 318 318 318 318 318
191 193 194 196 197 199 200 202 204 206 208 210 212 216 220 225 230 235 241 247 253 260 267 274 280 286 291 295 299 303 306 310 314 317 318 319 319 318 317 316 316 317 318 319 320 321 321 321 320 319 319 318 319 319 320 321 321 321 321 320 320 319 318 318 317 317 317 317 318
191 192 193 195 197 198 200 202 203 205 208 210 214 218 223 228 233 238 244 250 257 264 271 277 282 288 292 296 300 304 308 312 315 317 318 319 318 317 316 316 317 318 319 320 320 321 320 320 319 318 318 318 319 320 320 321 321 321 320 320 319 318 317 317 316 316 317 317 318
190 191 193 194 196 198 200 202 204 206 208 212 216 220 225 230 236 241 247 254 260 267 273 279 285 290 294 298 302 306 310 314 316 318 318 318 317 317 316 316 317 318 319 320 320 320 320 319 319 318 319 319 320 321 321 322 321 321 320 319 318 317 317 316 315 316 316 317 318
190 191 193 195 197 199 201 203 204 207 209 213 218 222 228 233 238 244 250 256 263 269 276 282 287 292 296 299 303 308 313 316 317 318 318 317 317 316 316 317 318 319 319 320 320 320 319 319 319 319 320 320 321 321 322 322 321 320 319 318 317 316 316 315 315 315 316 317 318
190 192 194 195 197 199 201 203 205 207 211 215 220 225 229 234 239 245 252 259 266 272 278 284 289 293 298 302 307 312 315 317 317 317 316 316 316 315 316 317 318 319 319 320 320 320 320 320 320 321 321 321 321 322 322 321 321 320 318 317 316 315 315 314 314 315 316 317 318
191 193 194 196 197 199 200 202 205 208 213 217 222 226 230 235 240 247 255 263 270 275 282 287 292 297 302 307 312 315 317 317 316 315 315 314 314 314 315 317 318 318 319 319 319 320 320 320 321 321 321 322 322 322 321 321 319 318 317 316 315 314 313 313 313 314 315 317 318
191 192 194 195 196 197 199 202 206 210 214 218 222 226 230 236 242 251 260 269 274 280 285 291 296 303 309 313 316 317 316 315 314 314 313 313 313 314 315 317 318 318 319 319 319 320 320 321 321 322 322 322 321 321 320 319 318 317 316 315 314 313 312 311 312 314 316 318 319
191 192 193 194 195 197 199 203 206 210 214 218 222 226 231 237 245 256 266 273 278 283 288 295 302 309 314 316 315 314 314 313 313 313 313 313 314 315 316 317 318 318 319 319 320 320 321 321 322 322 322 322 321 320 319 318 317 316 315 314 313 311 311 310 312 314 316 318 319
190 191 192 193 195 197 201 204 207 211 214 217 221 225 231 239 252 263 271 277 281 286 293 301 309 314 315 314 312 312 311 311 311 312 313 314 315 316 316 317 318 319 319 320 321 321 322 322 322 322 322 321 320 319 317 317 316 315 314 313 311 310 310 310 312 314 317 318 318
190 191 192 194 196 199 202 205 208 211 213 216 219 223 230 244 257 267 274 279 285 292 301 309 314 315 312 310 310 310 310 310 311 312 313 314 316 316 317 318 318 319 320 321 322 322 323 323 322 322 321 320 319 317 316 316 315 314 313 312 310 309 309 310 313 315 318 318 318
189 191 194 196 199 201 203 205 207 209 210 212 215 222 235 249 260 269 276 284 293 302 310 314 314 310 307 307 308 309 309 310 312 313 314 315 316 317 318 319 319 320 321 322 323 323 323 322 322 321 320 319 318 317 316 315 315 314 312 310 309 309 310 312 315 317 319 319 319
191 193 196 198 200 202 203 204 204 205 206 208 213 223 238 253 263 273 282 293 305 313 315 312 308 306 306 307 308 309 310 311 313 314 315 317 318 318 319 320 321 322 323 324 324 324 323 322 321 320 320 319 318 316 316 315 314 313 311 309 308 309 311 314 317 319 321 321 320
192 194 197 199 200 200 201 200 200 200 201 205 214 227 242 256 269 280 293 307 315 315 311 306 305 306 307 308 309 310 311 313 314 315 317 318 319 320 321 322 323 323 324 324 324 323 322 321 320 320 319 319 318 317 316 315 314 312 310 309 309 311 314 317 320 322 323 323 320
193 195 196 197 197 197 196 195 195 196 199 206 216 231 248 262 278 293 308 315 314 308 304 303 304 306 307 308 310 312 313 314 315 317 318 319 320 322 323 324 324 324 324 324 323 322 321 321 320 320 320 319 318 317 316 315 313 312 310 310 311 314 317 321 323 325 326 324 320
193 194 194 194 194 193 192 192 192 194 199 208 221 238 258 279 300 312 315 312 306 303 302 303 306 307 309 310 312 313 314 316 317 318 319 321 322 324 325 325 325 324 324 323 322 321 321 321 320 321 320 319 319 318 317 315 313 312 311 311 314 317 322 325 327 328 328 325 319
192 193 192 191 190 189 189 189 190 194 201 211 229 254 284 311 321 318 310 304 302 302 304 306 308 310 311 312 313 314 316 317 319 320 322 323 324 325 326 325 325 324 323 322 321 321 321 321 321 321 321 320 320 318 317 316 314 313 313 314 318 322 326 328 329 329 328 325 320
188 189 189 188 187 186 186 187 190 194 202 216 244 290 318 324 316 307 302 301 303 304 305 308 310 311 313 314 316 317 318 320 322 323 324 325 326 326 326 325 324 323 322 321 321 321 321 321 322 322 322 322 320 319 318 317 315 315 316 318 321 326 329 329 329 328 326 323 319
183 183 184 185 185 185 185 186 189 193 201 227 292 325 326 316 302 298 299 301 303 305 307 309 311 313 315 316 318 320 321 323 325 326 327 327 326 326 325 324 323 322 322 321 321 321 322 322 323 324 323 323 321 320 319 318 318 317 318 320 323 327 329 329 328 325 322 318 315
179 180 181 182 182 182 182 184 185 191 203 294 328 325 313 301 296 297 299 302 304 306 309 312 313 315 317 319 321 323 325 326 327 328 328 327 326 325 324 323 323 322 321 321 321 322 322 323 324 325 324 323 322 321 321 320 319 318 318 320 323 325 327 327 325 321 317 313 311
177 177 178 178 178 178 179 178 179 178 288 339 318 304 296 294 296 298 301 305 308 311 313 315 316 318 319 322 324 326 327 327 328 328 327 327 326 324 324 323 322 322 321 321 322 322 323 324 325 326 325 325 324 323 321 320 318 318 318 320 323 324 324 323 320 315 312 310 311
174 174 174 174 174 173 169 162 146 81 355 321 299 292 292 295 298 302 306 310 313 315 316 318 319 320 322 324 326 327 328 328 327 327 326 326 325 324 323 322 322 321 321 322 322 323 324 325 326 326 326 326 325 323 321 320 319 318 318 321 323 323 322 319 315 312 311 311 315
Height
1472 1474 1476 1477 1479 1480 1482 1483 1485 1487 1489 1490 1492 1493 1495 1496 1497 1498 1499 1500 1501 1501 1502 1503 1503 1503 1504 1504 1504 1505 1505 1505 1505 1505 1505 1505 1505 1505 1504 1504 1503 1503 1502 1502 1501 1501 1500 1499 1498 1498 1497 1496 1496 1495 1495 1494 1493 1492 1491 1491 1490 1490 1489 1488 1488 1487 1486 1486 1485
1472 1473 1475 1476 1478 1480 1481 1483 1485 1487 1489 1491 1492 1493 1495 1496 1496 1497 1498 1499 1500 1501 1501 1502 1502 1502 1503 1503 1503 1504 1504 1504 1504 1504 1504 1504 1504 1504 1503 1503 1502 1502 1501 1501 1500 1500 1499 1498 1498 1497 1496 1496 1495 1494 1494 1493 1492 1491 1491 1490 1489 1489 1488 1487 1487 1486 1486 1485 1484
1472 1473 1474 1476 1477 1479 1481 1482 1484 1486 1488 1490 1492 1493 1494 1495 1496 1497 1498 1499 1499 1500 1501 1501 1501 1501 1502 1502 1502 1503 1503 1503 1503 1503 1503 1503 1503 1503 1502 1502 1501 1501 1500 1500 1499 1499 1498 1497 1497 1496 1496 1495 1494 1494 1493 1492 1491 1491 1490 1489 1489 1488 1487 1486 1486 1485 1484 1484 1483
1471 1473 1474 1475 1477 1478 1480 1482 1484 1486 1488 1490 1491 1492 1493 1494 1496 1496 1497 1498 1499 1499 1500 1500 1500 1501 1501 1501 1501 1502 1502 1502 1502 1502 1502 1502 1502 1501 1501 1501 1501 1500 1499 1499 1498 1497 1497 1496 1496 1496 1495 1494 1493 1493 1492 1491 1491 1490 1489 1488 1488 1487 1486 1486 1485 1484 1483 1482 1481
1471 1472 1473 1475 1476 1478 1481 1483 1485 1486 1488 1489 1490 1491 1492 1494 1495 1496 1496 1497 1498 1498 1499 1499 1499 1500 1500 1501 1501 1501 1501 1501 1501 1501 1501 1501 1501 1501 1500 1500 1499 1499 1498 1498 1497 1496 1496 1496 1495 1495 1494 1493 1493 1492 1491 1491 1490 1489 1488 1487 1487 1486 1485 1484 1484 1483 1482 1481 1480
1471 1472 1473 1475 1476 1479 1481 1483 1485 1486 1487 1488 1490 1491 1492 1493 1494 1495 1496 1496 1497 1497 1498 1498 1499 1499 1499 1500 1500 1500 1500 1501 1501 1501 1501 1500 1500 1500 1499 1499 1498 1498 1497 1497 1496 1496 1495 1495 1494 1494 1493 1492 1491 1491 1491 1490 1489 1488 1487 1486 1486 1485 1484 1483 1482 1481 1481 1480 1479
1470 1471 1473 1474 1476 1479 1481 1483 1484 1486 1487 1488 1489 1490 1491 1492 1493 1494 1495 1495 1496 1496 1497 1497 1498 1498 1498 1499 1499 1499 1499 1500 1500 1500 1499 1499 1499 1499 1498 1498 1497 1497 1496 1496 1495 1495 1494 1494 1493 1493 1492 1491 1491 1490 1489 1489 1488 1487 1487 1486 1485 1484 1483 1482 1481 1480 1479 1478 1477
1470 1471 1473 1474 1476 1479 1481 1482 1484 1485 1486 1488 1489 1490 1491 1492 1492 1493 1494 1495 1495 1496 1496 1496 1497 1497 1497 1498 1498 1498 1498 1499 1499 1498 1498 1498 1498 1497 1497 1496 1496 1496 1495 1495 1494 1494 1493 1493 1492 1492 1491 1490 1490 1489 1488 1488 1487 1486 1486 1485 1484 1483 1482 1481 1479 1478 1477 1476 1475
1469 1471 1473 1475 1477 1479 1481 1482 1484 1485 1486 1487 1488 1490 1490 1491 1492 1492 1493 1494 1494 1495 1495 1496 1496 1496 1497 1497 1497 1497 1498 1498 1498 1497 1497 1497 1497 1496 1496 1496 1495 1495 1494 1494 1493 1493 1492 1492 1491 1491 1490 1489 1489 1488 1487 1487 1486 1485 1484 1484 1483 1481 1481 1479 1478 1477 1476 1475 1474
1469 1471 1472 1474 1476 1479 1481 1482 1483 1485 1486 1487 1488 1489 1490 1490 1491 1491 1492 1493 1493 1494 1494 1495 1495 1496 1496 1496 1496 1496 1497 1497 1497 1496 1496 1496 1496 1495 1495 1495 1494 1494 1493 1493 1492 1492 1491 1491 1490 1490 1489 1488 1488 1487 1486 1486 1485 1484 1483 1482 1481 1480 1479 1478 1476 1475 1474 1473 1472
1469 1471 1472 1474 1476 1478 1480 1481 1483 1484 1485 1486 1487 1488 1488 1489 1490 1491 1491 1492 1492 1493 1493 1494 1494 1495 1495 1495 1496 1496 1496 1496 1496 1496 1495 1495 1495 1494 1494 1493 1493 1493 1492 1492 1491 1491 1490 1490 1489 1488 1488 1487 1486 1486 1485 1484 1484 1483 1482 1481 1480 1479 1477 1476 1475 1474 1472 1471 1470
1469 1471 1472 1474 1476 1478 1479 1481 1482 1483 1484 1485 1486 1487 1487 1488 1489 1490 1490 1491 1491 1492 1492 1493 1493 1494 1494 1494 1495 1495 1495 1495 1495 1494 1494 1494 1493 1493 1493 1492 1492 1491 1491 1491 1490 1490 1489 1489 1488 1487 1486 1486 1485 1485 1484 1483 1482 1481 1480 1479 1478 1477 1476 1475 1473 1472 1471 1470 1468
1469 1471 1472 1474 1476 1477 1479 1480 1481 1482 1483 1484 1485 1486 1486 1487 1488 1489 1489 1490 1491 1491 1491 1492 1492 1493 1493 1493 1494 1494 1494 1494 1493 1493 1493 1493 1492 1492 1492 1491 1491 1490 1490 1489 1489 1489 1488 1487 1487 1486 1486 1485 1484 1483 1482 1481 1481 1480 1479 1477 1476 1475 1474 1473 1471 1470 1469 1468 1466
1469 1470 1472 1474 1476 1477 1478 1479 1480 1481 1482 1483 1484 1485 1486 1486 1487 1488 1489 1489 1490 1490 1491 1491 1491 1492 1492 1492 1492 1492 1492 1492 1492 1492 1492 1491 1491 1491 1491 1490 1490 1489 1489 1488 1488 1487 1487 1486 1486 1485 1484 1484 1483 1482 1481 1480 1479 1478 1477 1476 1475 1473 1472 1471 1470 1468 1467 1466 1464
1469 1470 1472 1473 1475 1476 1477 1478 1480 1481 1481 1482 1483 1484 1485 1486 1486 1487 1488 1488 1489 1489 1490 1490 1491 1491 1491 1491 1491 1491 1491 1491 1491 1491 1491 1490 1490 1490 1489 1489 1489 1488 1488 1487 1486 1486 1486 1485 1484 1483 1483 1482 1481 1481 1480 1479 1477 1476 1475 1474 1473 1471 1470 1469 1467 1466 1465 1464 1462
1468 1470 1471 1473 1474 1476 1476 1478 1479 1480 1481 1481 1482 1483 1484 1485 1486 1486 1487 1487 1488 1489 1489 1490 1490 1490 1490 1490 1491 1490 1490 1490 1490 1490 1490 1489 1489 1489 1488 1488 1487 1487 1486 1486 1486 1485 1484 1483 1483 1482 1481 1481 1480 1479 1478 1477 1476 1475 1473 1472 1471 1470 1468 1467 1466 1464 1463 1461 1460
1468 1470 1471 1472 1474 1475 1476 1477 1478 1479 1480 1481 1481 1482 1483 1484 1485 1485 1486 1487 1487 1488 1488 1489 1489 1489 1489 1489 1489 1489 1489 1489 1489 1489 1488 1488 1488 1487 1487 1487 1486 1486 1486 1485 1484 1483 1483 1482 1481 1480 1480 1479 1478 1477 1476 1475 1474 1473 1472 1470 1469 1468 1466 1465 1464 1462 1461 1460 1458
1468 1469 1471 1472 1473 1474 1475 1476 1477 1478 1479 1480 1481 1481 1482 1483 1484 1485 1485 1486 1486 1487 1487 1488 1488 1488 1488 1488 1488 1488 1488 1488 1488 1488 1487 1487 1487 1486 1486 1486 1486 1485 1485 1484 1483 1482 1481 1481 1480 1479 1478 1477 1476 1475 1474 1473 1472 1471 1470 1469 1467 1466 1465 1463 1462 1461 1459 1458 1456
1467 1469 1470 1471 1472 1474 1475 1476 1476 1477 1478 1479 1480 1481 1481 1482 1483 1484 1485 1485 1486 1486 1486 1487 1487 1487 1487 1487 1487 1487 1487 1487 1487 1486 1486 1486 1486 1485 1485 1485 1484 1484 1483 1483 1482 1481 1480 1479 1478 1477 1476 1476 1475 1474 1472 1471 1471 1469 1468 1467 1465 1464 1463 1461 1460 1459 1457 1456 1455
1467 1468 1470 1471 1472 1473 1474 1475 1476 1476 1477 1478 1479 1480 1481 1481 1482 1483 1484 1484 1485 1485 1486 1486 1486 1486 1486 1486 1486 1486 1486 1486 1486 1485 1485 1485 1485 1484 1484 1484 1483 1483 1482 1481 1481 1480 1479 1478 1477 1476 1475 1474 1473 1472 1471 1470 1468 1467 1466 1465 1463 1462 1461 1460 1458 1457 1456 1455 1453
1466 1468 1469 1470 1471 1472 1473 1474 1475 1476 1477 1478 1478 1479 1480 1481 1481 1482 1483 1483 1484 1484 1485 1485 1485 1485 1485 1485 1485 1485 1485 1485 1484 1484 1484 1484 1483 1483 1483 1482 1482 1481 1481 1480 1479 1478 1477 1476 1475 1474 1473 1472 1471 1470 1469 1467 1466 1465 1464 1463 1462 1461 1459 1458 1456 1455 1454 1453 1451
1466 1467 1468 1470 1471 1471 1472 1473 1474 1475 1476 1477 1478 1479 1480 1480 1481 1481 1482 1482 1483 1483 1484 1484 1484 1484 1484 1484 1484 1484 1484 1483 1483 1483 1483 1482 1482 1482 1482 1481 1481 1480 1479 1479 1478 1477 1476 1475 1474 1472 1471 1470 1469 1468 1466 1466 1464 1463 1462 1461 1460 1459 1457 1456 1455 1453 1452 1451 1450
1466 1467 1468 1469 1470 1471 1472 1473 1474 1475 1476 1476 1477 1478 1479 1479 1480 1481 1481 1482 1482 1482 1483 1483 1483 1483 1483 1483 1483 1483 1483 1482 1482 1482 1481 1481 1481 1481 1481 1480 1480 1479 1478 1477 1476 1475 1474 1473 1472 1471 1469 1468 1467 1466 1465 1463 1462 1461 1460 1459 1458 1456 1455 1454 1453 1451 1450 1449 1448
1465 1466 1467 1468 1469 1470 1471 1472 1473 1474 1475 1476 1476 1477 1478 1479 1479 1480 1480 1481 1481 1482 1482 1482 1482 1482 1482 1482 1482 1482 1482 1481 1481 1481 1480 1480 1480 1480 1479 1479 1478 1477 1477 1476 1475 1474 1473 1471 1470 1468 1467 1466 1465 1464 1463 1461 1460 1459 1458 1457 1456 1454 1453 1452 1451 1449 1448 1447 1446
1465 1466 1466 1467 1468 1470 1471 1471 1472 1473 1474 1475 1476 1476 1477 1478 1478 1479 1480 1480 1481 1481 1481 1481 1481 1481 1481 1481 1481 1481 1481 1481 1480 1480 1479 1479 1479 1478 1478 1477 1477 1476 1475 1474 1473 1472 1471 1470 1468 1467 1465 1464 1463 1462 1461 1460 1459 1457 1456 1455 1454 1452 1451 1450 1448 1447 1446 1445 1444
1464 1465 1466 1467 1468 1469 1470 1471 1472 1473 1473 1474 1475 1476 1476 1477 1478 1478 1479 1480 1480 1480 1480 1481 1481 1481 1481 1480 1480 1480 1480 1480 1479 1479 1478 1478 1477 1477 1476 1476 1475 1475 1474 1473 1472 1471 1470 1468 1467 1466 1464 1462 1461 1460 1459 1458 1457 1456 1454 1453 1451 1450 1449 1447 1446 1445 1444 1443 1442
1464 1465 1466 1466 1467 1468 1469 1470 1471 1472 1473 1474 1474 1475 1476 1476 1477 1478 1478 1479 1479 1479 1480 1480 1480 1480 1479 1479 1479 1479 1479 1479 1478 1478 1477 1477 1476 1476 1475 1475 1474 1473 1472 1471 1470 1469 1468 1466 1465 1464 1462 1461 1460 1458 1457 1456 1455 1454 1452 1451 1450 1448 1447 1446 1444 1443 1442 1441 1440
1463 1464 1465 1466 1467 1468 1469 1470 1471 1471 1472 1473 1474 1475 1475 1476 1477 1477 1478 1478 1478 1479 1479 1479 1479 1479 1478 1478 1478 1478 1478 1477 1477 1477 1476 1476 1475 1475 1474 1473 1472 1471 1471 1470 1468 1467 1466 1465 1464 1462 1461 1460 1458 1457 1456 1455 1453 1452 1451 1449 1448 1446 1445 1444 1443 1441 1440 1439 1438
1463 1464 1465 1466 1467 1467 1468 1469 1470 1471 1471 1472 1473 1474 1475 1476 1476 1477 1477 1477 1478 1478 1478 1478 1478 1477 1477 1477 1477 1477 1477 1476 1476 1476 1475 1475 1474 1473 1472 1471 1471 1470 1469 1468 1467 1466 1464 1463 1462 1461 1460 1458 1457 1456 1454 1453 1451 1450 1449 1447 1446 1445 1444 1442 1441 1440 1439 1437 1436
1463 1464 1465 1466 1466 1467 1468 1469 1470 1471 1471 1472 1473 1474 1474 1475 1476 1476 1476 1477 1477 1477 1477 1477 1477 1477 1476 1476 1476 1476 1476 1475 1475 1475 1474 1473 1473 1472 1471 1470 1469 1468 1467 1466 1465 1464 1462 1461 1460 1459 1458 1457 1455 1454 1452 1451 1450 1448 1447 1446 1444 1443 1442 1441 1440 1438 1437 1436 1435
1463 1464 1465 1465 1466 1467 1468 1469 1469 1470 1471 1472 1473 1473 1474 1475 1475 1476 1476 1476 1476 1476 1476 1476 1476 1476 1476 1476 1475 1475 1475 1474 1474 1473 1473 1472 1471 1470 1469 1468 1467 1466 1466 1464 1463 1462 1461 1460 1459 1457 1456 1455 1454 1452 1451 1449 1448 1446 1445 1444 1443 1441 1440 1439 1438 1437 1436 1435 1433
1463 1463 1464 1465 1466 1466 1467 1468 1469 1470 1471 1471 1472 1473 1474 1474 1475 1475 1475 1476 1476 1475 1475 1475 1475 1475 1475 1475 1474 1474 1473 1473 1472 1472 1471 1471 1470 1469 1468 1466 1466 1465 1464 1462 1461 1460 1459 1458 1457 1456 1455 1453 1452 1450 1449 1447 1446 1445 1443 1442 1441 1440 1439 1438 1436 1435 1434 1433 1432
1462 1463 1464 1465 1466 1466 1467 1468 1469 1470 1471 1471 1472 1472 1473 1474 1474 1474 1475 1475 1475 1475 1475 1475 1475 1474 1474 1474 1473 1473 1472 1472 1471 1470 1470 1469 1468 1467 1466 1465 1464 1463 1462 1461 1460 1459 1458 1456 1455 1454 1453 1451 1450 1448 1447 1446 1444 1443 1441 1440 1439 1438 1437 1436 1435 1434 1433 1431 1431
1462 1463 1464 1465 1466 1466 1467 1468 1469 1470 1470 1471 1471 1472 1473 1473 1473 1474 1474 1474 1474 1474 1474 1474 1474 1473 1473 1473 1472 1472 1471 1470 1470 1469 1468 1467 1466 1466 1465 1463 1462 1461 1460 1459 1458 1457 1456 1455 1453 1452 1451 1449 1448 1446 1445 1443 1442 1441 1440 1439 1437 1436 1436 1435 1434 1432 1431 1430 1429
1462 1463 1464 1465 1466 1466 1467 1468 1469 1469 1470 1471 1471 1472 1472 1472 1472 1473 1473 1473 1473 1473 1473 1473 1473 1472 1472 1472 1471 1471 1470 1469 1468 1467 1467 1466 1465 1464 1463 1462 1461 1460 1459 1458 1456 1456 1454 1453 1452 1450 1449 1447 1446 1444 1443 1441 1440 1439 1438 1437 1436 1435 1434 1433 1432 1431 1430 1428 1427
1462 1463 1464 1464 1465 1466 1467 1468 1468 1469 1470 1470 1471 1471 1471 1471 1471 1472 1472 1472 1472 1472 1472 1472 1472 1471 1471 1471 1470 1469 1469 1468 1467 1466 1465 1464 1463 1462 1461 1461 1459 1458 1457 1456 1455 1454 1453 1451 1450 1448 1447 1445 1444 1442 1441 1440 1438 1437 1436 1435 1434 1433 1432 1431 1430 1429 1428 1427 1426
1462 1463 1464 1464 1465 1466 1467 1467 1468 1469 1469 1470 1470 1470 1471 1471 1471 1471 1472 1472 1472 1471 1471 1471 1471 1471 1470 1469 1469 1468 1467 1466 1466 1465 1464 1462 1461 1461 1460 1459 1458 1457 1456 1455 1453 1452 1451 1450 1448 1446 1445 1443 1442 1440 1439 1438 1436 1435 1434 1433 1432 1431 1430 1429 1428 1427 1426 1425 1424
1462 1463 1464 1465 1465 1466 1466 1467 1468 1468 1469 1469 1469 1470 1470 1471 1471 1471 1471 1471 1471 1471 1471 1470 1470 1470 1469 1468 1467 1467 1466 1465 1464 1463 1462 1461 1460 1459 1458 1457 1456 1455 1454 1453 1451 1450 1449 1448 1446 1445 1443 1442 1440 1439 1437 1436 1435 1434 1432 1431 1430 1429 1428 1427 1426 1426 1425 1424 1423
1462 1463 1464 1464 1465 1466 1466 1467 1467 1468 1468 1468 1469 1469 1470 1470 1471 1471 1471 1471 1470 1470 1470 1469 1469 1468 1468 1467 1466 1466 1465 1463 1462 1461 1461 1460 1459 1458 1457 1456 1455 1453 1452 1451 1450 1448 1447 1446 1445 1443 1442 1440 1439 1437 1436 1435 1434 1432 1431 1430 1429 1428 1427 1426 1425 1424 1423 1422 1421
1462 1463 1464 1464 1465 1466 1466 1466 1467 1467 1468 1468 1469 1469 1470 1470 1470 1470 1470 1470 1469 1469 1469 1468 1468 1467 1467 1466 1465 1465 1463 1462 1461 1460 1459 1458 1457 1456 1455 1454 1453 1452 1451 1449 1448 1447 1446 1444 1443 1441 1440 1439 1437 1436 1435 1434 1432 1431 1430 1429 1428 1427 1426 1425 1424 1423 1422 1420 1419
1462 1463 1463 1464 1465 1465 1466 1466 1466 1467 1467 1468 1468 1469 1469 1469 1469 1469 1469 1469 1468 1468 1468 1467 1466 1466 1465 1465 1464 1463 1462 1461 1461 1459 1458 1457 1456 1455 1454 1452 1451 1450 1449 1447 1446 1445 1444 1442 1441 1440 1439 1437 1436 1435 1434 1433 1431 1430 1429 1428 1427 1426 1425 1423 1422 1421 1420 1418 1417